Regional Weather Roundup
Issued by NWS Bismarck, ND

Home | Current Version | Previous Version | Text Only | Print | Product List | Glossary On
Versions: 1 2 3 4 5 6 7 8 9 10 11 12 13 14 15 16 17 18 19 20 21 22 23 24 25 26 27 28 29 30 31 32 33 34 35 36 37 38 39 40 41 42 43 44 45 46 47 48 49 50
000
ASUS43 KBIS 290710
RWRBIS

NWR BROADCAST TEXT
NATIONAL WEATHER SERVICE BISMARCK ND
100 AM CST THU JAN 29 2015

NOTE: "FAIR" INDICATES FEW OR NO CLOUDS BELOW 12,000 FEET WITH NO
SIGNIFICANT WEATHER AND/OR OBSTRUCTIONS TO VISIBILITY.


CITY           SKY/WX    TMP DP  RH WIND       PRES   REMARKS
WILLISTON      CLOUDY    31  25  78 NW12      30.35R
MINOT          CLOUDY    26  20  77 NW23G31   30.28R WCI  11
MINOT AFB      CLOUDY    26  26  99 NW18      30.28R WCI  13
BISMARCK       CLOUDY    32  27  81 NW14      30.27R
DICKINSON      CLOUDY    33  24  69 NW18G26   30.27R
GARRISON         N/A     30  26  85 N17G25    30.27R WCI  18
HETTINGER ARPT CLOUDY    33  25  72 NW21G29   30.30R
JAMESTOWN      CLOUDY    27  22  81 N21G30    30.17R WCI  13
BEACH          CLOUDY    32  28  86 NW16      30.35R
CARRINGTON     CLOUDY    25  25 100 MISG      30.20R
CROSBY         CLOUDY    25  25 100 NW18      30.35R WCI  11
HARVEY         CLOUDY    27  25  93 NW20G25   30.22R WCI  13
HAZEN          CLOUDY    32  25  74 NW14G24   30.30R
LINTON         CLOUDY    32  30  93 NW14      30.24R
MANDAN         CLOUDY    32  27  80 NW21G29   30.26R WCI  20
OAKES            N/A     28  27  93 NW24G35   30.15R WCI  14
RUGBY          CLOUDY    23  21  93 NW15      30.23R WCI  10
TIOGA          CLOUDY    25  25 100 N18G25    30.34R WCI  11
WATFORD CITY   CLOUDY    28  27  93 N14G20    30.32R WCI  17
$$

CITY           SKY/WX    TMP DP  RH WIND       PRES   REMARKS
GRAND FORKS    CLOUDY    22  18  85 N18       30.15R WCI   7
GRAND FORKS AF CLOUDY    23  19  84 N14       30.17R WCI  10
DEVILS LAKE    CLOUDY    23  18  80 N16G23    30.18R WCI  10
FARGO          CLOUDY    28  23  81 NW28G33   30.11R WCI  13
CANDO          CLOUDY    23  19  86 N18G25    30.22R WCI   9
CAVALIER       CLOUDY    18  14  86 NW18G29   30.19R WCI   2
GWINNER        CLOUDY    32  30  93 NW21G29   30.14R WCI  20
LANGDON        CLOUDY    18  14  86 N23       30.16R WCI   0
ROLLA          CLOUDY    19  19 100 NW20G25   30.21R WCI   4
WALHALLA         N/A     18  18 100 N18G28    30.21R WCI   2
$$

CITY           SKY/WX    TMP DP  RH WIND       PRES   REMARKS
ABERDEEN       CLOUDY    32  25  75 N21       30.18R WCI  20
MOBRIDGE       CLOUDY    35  27  72 NW24G38   30.22R
BUFFALO          N/A     33  24  69 NW25G32   30.26R
RAPID CITY     CLOUDY    34  26  72 N26G33    30.33R
GLASGOW        CLEAR     26  23  88 NW3       30.40R
SIDNEY         CLOUDY    32  25  74 NW12      30.39R
WOLF POINT     PTCLDY    29  23  78 W7        30.41R
GLENDIVE       CLEAR     30  25  80 NW10      30.38S
MILES CITY     CLEAR     27  24  89 W6        30.42R
BAKER          CLOUDY    32  24  72 NW16G25   30.36R
$$

CITY           SKY/WX    TMP DP  RH WIND       PRES   REMARKS
BILLINGS       MOCLDY    35  27  72 CALM      30.42R
GREAT FALLS    CLEAR     29  26  89 S3        30.37S
REGINA         CLOUDY    21  18  86 N14       30.37R WCI   8
ESTEVAN        FLURRIES  23  19  86 NW20      30.33R WCI   8
$$




USA.gov is the U.S. government's official web portal to all federal, state and local government web resources and services.